Home > Weather > Palma > Past weeks

Flag for Spain Weather for the Past 2 Weeks in Palma, Majorca, Spain

Now
64 °F

Passing clouds.


Feels Like: 64 °F
Forecast: 56 / 64 °F
Wind: 28 mph from West

Location: Palma De Mallorca / Son San Juan

Current Time: Feb 10, 2016 at 4:00:07 AM

Latest Report: Feb 10, 2016 at 3:30 AM


Visibility: N/A

Pressure: 29.86 "Hg

Humidity: 60%

Dew point: 50 °F

Location of PalmaLocation

Historic Weather in Palma — Graph

°F

Palma Temperature Yesterday

Maximum temperature yesterday: 64 °F (at 9:00 PM)
Minimum temperature yesterday: 46 °F (at 1:00 AM)
Average temperature yesterday: 59 °F

High & Low Weather Summary for the Past Weeks

 TemperatureHumidityPressure
High72 °F (Feb 1, 1:30 PM)100% (Jan 26, 2:00 AM)30.60 "Hg (Jan 26, 2:00 AM)
Low36 °F (Feb 5, 7:30 AM)42% (Feb 7, 3:30 PM)29.80 "Hg (Feb 7, 8:30 AM)
Average54 °F83%30.32 "Hg
* Reported Jan 26 2:00 AM — Feb 10 2:30 AM, Palma, Weather by CustomWeather, © 2016

Note: Actual official high and low records may vary slightly from our data, if they occured in-between our weather recording intervals... More about our weather records

Advertising

Palma Weather History for the Previous 24 Hours

 ConditionsComfort  
Time TempWeatherWind HumidityBarometerVisibility
2:30 AM
Wed, Feb 10
64 °FPassing clouds.29 mph64%29.86 "HgN/A
1:30 AM64 °FPassing clouds.28 mph60%29.86 "HgN/A
1:00 AM64 °FPassing clouds.31 mph60%29.86 "HgN/A
12:30 AM64 °FPassing clouds.28 mph60%29.86 "HgN/A
12:00 AM64 °FPassing clouds.31 mph60%29.86 "HgN/A
11:30 PM
Tue, Feb 9
64 °FPassing clouds.29 mph60%29.86 "HgN/A
10:30 PM64 °FPassing clouds.24 mph64%29.86 "HgN/A
10:00 PM64 °FPassing clouds.25 mph60%29.86 "HgN/A
9:30 PM64 °FPassing clouds.25 mph60%29.86 "HgN/A
9:00 PM64 °FPassing clouds.31 mph60%29.83 "HgN/A
8:30 PM63 °FPassing clouds.22 mph64%29.86 "HgN/A
8:00 PM63 °FPassing clouds.10 mph68%29.86 "HgN/A
7:30 PM61 °FPassing clouds.15 mph77%29.86 "HgN/A
7:00 PM61 °FPassing clouds.17 mph72%29.86 "HgN/A
6:30 PM61 °FPassing clouds.18 mph68%29.89 "HgN/A
6:00 PM63 °FPassing clouds.17 mph64%29.89 "HgN/A
5:30 PM61 °FPassing clouds.18 mph68%29.89 "HgN/A
5:00 PM61 °FPassing clouds.21 mph68%29.92 "HgN/A
4:30 PM61 °FPassing clouds.25 mph68%29.92 "HgN/A
4:00 PM61 °FPassing clouds.28 mph68%29.95 "HgN/A
3:30 PM61 °FPassing clouds.26 mph68%29.95 "HgN/A
3:00 PM61 °FPassing clouds.29 mph63%29.98 "HgN/A
2:30 PM63 °FPassing clouds.29 mph59%29.98 "HgN/A
2:00 PM63 °FPassing clouds.30 mph56%30.01 "HgN/A
1:30 PM61 °FPassing clouds.29 mph68%30.01 "HgN/A
1:00 PM61 °FPassing clouds.26 mph63%30.04 "HgN/A
12:30 PM61 °FPassing clouds.24 mph63%30.04 "HgN/A
11:30 AM63 °FPassing clouds.25 mph68%30.07 "HgN/A
11:00 AM61 °FPassing clouds.28 mph68%30.07 "HgN/A
10:30 AM61 °FPassing clouds.25 mph68%30.07 "HgN/A
10:00 AM61 °FPassing clouds.24 mph68%30.07 "HgN/A
9:00 AM59 °FPassing clouds.16 mph72%30.07 "HgN/A
8:30 AM57 °FPassing clouds.14 mph77%30.07 "HgN/A
8:00 AM57 °FPassing clouds.15 mph77%30.07 "HgN/A
7:30 AM57 °FPassing clouds.14 mph77%30.09 "HgN/A
7:00 AM57 °FPassing clouds.13 mph77%30.09 "HgN/A
6:30 AM57 °FPassing clouds.13 mph82%30.09 "HgN/A
5:30 AM57 °FPassing clouds.14 mph82%30.12 "HgN/A
4:30 AM57 °FPassing clouds.15 mph82%30.12 "HgN/A
4:00 AM57 °FPassing clouds.12 mph82%30.15 "HgN/A
Weather by CustomWeather, © 2016

See weather overviewHow to use our weather pages